Time,TemperatureF,DewpointF,PressureIn,WindDirection,WindDirectionDegrees,WindSpeedMPH,WindSpeedGustMPH,Humidity,HourlyPrecipIn,Conditions,Clouds,dailyrainin,SoftwareType,DateUTC
2013-05-17 00:03:00,64.0,60.0,29.96,SSW,211,0.0,0.0,86,0.00,,,0.00,,2013-05-17 05:03:00,
2013-05-17 00:14:00,64.0,60.0,29.96,SSW,211,0.0,0.0,86,0.00,,,0.00,,2013-05-17 05:14:00,
2013-05-17 00:22:00,64.0,60.0,29.97,SSW,211,0.0,0.0,87,0.00,,,0.00,,2013-05-17 05:22:00,
2013-05-17 00:32:00,64.0,60.0,29.97,SSW,211,0.0,0.0,88,0.00,,,0.00,,2013-05-17 05:32:00,
2013-05-17 00:42:00,64.0,60.0,29.97,SSW,211,0.0,0.0,88,0.00,,,0.00,,2013-05-17 05:42:00,
2013-05-17 00:52:00,64.0,60.0,29.97,SSW,211,0.0,0.0,88,0.00,,,0.00,,2013-05-17 05:52:00,
2013-05-17 01:02:00,64.0,60.0,29.98,SSW,211,0.0,0.0,88,0.00,,,0.00,,2013-05-17 06:02:00,
2013-05-17 01:11:00,64.0,60.0,29.98,SSW,211,0.0,0.0,88,0.00,,,0.00,,2013-05-17 06:11:00,
2013-05-17 01:21:00,65.0,61.0,29.97,SSW,211,0.0,0.0,88,0.00,,,0.00,,2013-05-17 06:21:00,
2013-05-17 01:32:00,65.0,61.0,29.97,SSW,211,0.0,0.0,88,0.00,,,0.00,,2013-05-17 06:32:00,
2013-05-17 01:42:00,65.0,61.0,29.97,SSW,211,0.0,0.0,88,0.00,,,0.00,,2013-05-17 06:42:00,
2013-05-17 01:52:00,65.0,61.0,29.97,SSW,211,0.0,0.0,87,0.00,,,0.00,,2013-05-17 06:52:00,
2013-05-17 02:02:00,65.0,61.0,29.97,SSW,211,0.0,0.0,87,0.00,,,0.00,,2013-05-17 07:02:00,
2013-05-17 02:11:00,65.0,61.0,29.97,SSW,211,0.0,0.0,87,0.00,,,0.00,,2013-05-17 07:11:00,
2013-05-17 02:21:00,65.0,61.0,29.96,SSW,211,0.0,0.0,87,0.00,,,0.00,,2013-05-17 07:21:00,
2013-05-17 02:32:00,65.0,61.0,29.96,SSW,211,0.0,0.0,87,0.00,,,0.00,,2013-05-17 07:32:00,
2013-05-17 02:43:00,65.0,61.0,29.96,SSW,211,0.0,0.0,87,0.00,,,0.00,,2013-05-17 07:43:00,
2013-05-17 02:53:00,64.0,60.0,29.96,SSW,211,0.0,0.0,88,0.00,,,0.00,,2013-05-17 07:53:00,
2013-05-17 03:02:00,64.0,61.0,29.97,SSW,211,0.0,0.0,89,0.00,,,0.00,,2013-05-17 08:02:00,
2013-05-17 03:12:00,64.0,61.0,29.97,SSW,211,0.0,0.0,89,0.00,,,0.00,,2013-05-17 08:12:00,
2013-05-17 03:23:00,64.0,61.0,29.97,SSW,211,0.0,0.0,90,0.00,,,0.00,,2013-05-17 08:23:00,
2013-05-17 03:33:00,64.0,61.0,29.97,SSW,211,0.0,0.0,90,0.00,,,0.00,,2013-05-17 08:33:00,
2013-05-17 03:42:00,64.0,61.0,29.97,SSW,211,0.0,0.0,90,0.00,,,0.00,,2013-05-17 08:42:00,
2013-05-17 03:52:00,65.0,62.0,29.97,SSW,211,0.0,0.0,89,0.00,,,0.00,,2013-05-17 08:52:00,
2013-05-17 04:02:00,65.0,62.0,29.98,SSW,211,0.0,0.0,89,0.00,,,0.00,,2013-05-17 09:02:00,
2013-05-17 04:12:00,65.0,62.0,29.98,SSW,211,0.0,0.0,89,0.00,,,0.00,,2013-05-17 09:12:00,
2013-05-17 04:22:00,65.0,62.0,29.98,SSW,211,0.0,0.0,89,0.00,,,0.00,,2013-05-17 09:22:00,
2013-05-17 04:33:00,65.0,61.0,29.98,SSW,211,0.0,0.0,88,0.00,,,0.00,,2013-05-17 09:33:00,
2013-05-17 04:42:00,65.0,61.0,29.98,SSW,211,0.0,0.0,88,0.00,,,0.00,,2013-05-17 09:42:00,
2013-05-17 04:53:00,65.0,61.0,29.98,SSW,211,0.0,0.0,88,0.00,,,0.00,,2013-05-17 09:53:00,
2013-05-17 05:03:00,65.0,61.0,29.98,SSW,211,0.0,0.0,87,0.00,,,0.00,,2013-05-17 10:03:00,
2013-05-17 05:12:00,65.0,61.0,29.98,SSW,211,0.0,0.0,87,0.00,,,0.00,,2013-05-17 10:12:00,
2013-05-17 05:23:00,65.0,61.0,29.98,ESE,109,0.0,0.0,86,0.00,,,0.00,,2013-05-17 10:23:00,
2013-05-17 05:33:00,66.0,61.0,29.98,ESE,108,0.0,0.0,85,0.00,,,0.00,,2013-05-17 10:33:00,
2013-05-17 05:42:00,66.0,61.0,29.98,ESE,108,0.0,0.0,85,0.00,,,0.00,,2013-05-17 10:42:00,
2013-05-17 05:54:00,65.0,61.0,29.98,ESE,108,0.0,0.0,86,0.00,,,0.00,,2013-05-17 10:54:00,
2013-05-17 06:02:00,65.0,61.0,29.98,ESE,108,0.0,0.0,86,0.00,,,0.00,,2013-05-17 11:02:00,
2013-05-17 06:12:00,65.0,61.0,29.98,ESE,108,0.0,0.0,86,0.00,,,0.00,,2013-05-17 11:12:00,
2013-05-17 06:22:00,65.0,61.0,29.98,ESE,108,0.0,0.0,87,0.00,,,0.00,,2013-05-17 11:22:00,
2013-05-17 06:34:00,65.0,61.0,29.98,ESE,108,0.0,0.0,87,0.00,,,0.00,,2013-05-17 11:34:00,
2013-05-17 06:42:00,65.0,61.0,29.98,ESE,108,0.0,0.0,87,0.00,,,0.00,,2013-05-17 11:42:00,
2013-05-17 06:53:00,66.0,61.0,29.99,SSE,158,0.0,0.0,85,0.00,,,0.00,,2013-05-17 11:53:00,
2013-05-17 07:03:00,66.0,60.0,29.98,SSE,148,0.0,0.0,82,0.00,,,0.00,,2013-05-17 12:03:00,
2013-05-17 07:12:00,66.0,60.0,29.98,SSE,148,0.0,0.0,82,0.00,,,0.00,,2013-05-17 12:12:00,
2013-05-17 07:23:00,66.0,60.0,29.99,South,178,0.0,0.0,81,0.00,,,0.00,,2013-05-17 12:23:00,
2013-05-17 07:32:00,67.0,61.0,29.99,SSE,163,0.0,0.0,80,0.00,,,0.00,,2013-05-17 12:32:00,
2013-05-17 07:43:00,67.0,61.0,29.99,SSE,163,0.0,0.0,80,0.00,,,0.00,,2013-05-17 12:43:00,
2013-05-17 07:53:00,67.0,61.0,29.99,SSE,168,0.0,0.0,80,0.00,,,0.00,,2013-05-17 12:53:00,
2013-05-17 08:03:00,67.0,60.0,29.99,SSE,158,0.0,0.0,78,0.00,,,0.00,,2013-05-17 13:03:00,
2013-05-17 08:12:00,67.0,60.0,29.99,SSE,158,0.0,0.0,78,0.00,,,0.00,,2013-05-17 13:12:00,
2013-05-17 08:23:00,67.0,60.0,30.00,SSE,158,0.0,0.0,78,0.00,,,0.00,,2013-05-17 13:23:00,
2013-05-17 08:33:00,67.0,60.0,30.01,SSE,150,0.0,0.0,79,0.00,,,0.00,,2013-05-17 13:33:00,
2013-05-17 08:42:00,67.0,60.0,30.01,SSE,150,0.0,0.0,79,0.00,,,0.00,,2013-05-17 13:42:00,
2013-05-17 08:52:00,68.0,61.0,30.01,SSE,150,0.0,0.0,79,0.00,,,0.00,,2013-05-17 13:52:00,
2013-05-17 09:02:00,68.0,61.0,30.01,SSE,159,0.0,0.0,79,0.00,,,0.00,,2013-05-17 14:02:00,
2013-05-17 09:13:00,68.0,61.0,30.01,SSE,159,0.0,0.0,79,0.00,,,0.00,,2013-05-17 14:13:00,
2013-05-17 09:22:00,68.0,61.0,30.02,SE,146,0.0,0.0,79,0.00,,,0.00,,2013-05-17 14:22:00,
2013-05-17 09:34:00,68.0,61.0,30.02,ESE,111,0.0,0.0,78,0.00,,,0.00,,2013-05-17 14:34:00,
2013-05-17 09:43:00,68.0,61.0,30.02,ESE,111,0.0,0.0,78,0.00,,,0.00,,2013-05-17 14:43:00,
2013-05-17 09:53:00,69.0,62.0,30.02,SE,137,0.0,0.0,78,0.00,,,0.00,,2013-05-17 14:53:00,
2013-05-17 10:03:00,69.0,62.0,30.02,SE,137,0.0,0.0,78,0.00,,,0.00,,2013-05-17 15:03:00,
2013-05-17 10:14:00,69.0,62.0,30.02,SE,137,0.0,0.0,78,0.00,,,0.00,,2013-05-17 15:14:00,
2013-05-17 10:25:00,69.0,62.0,30.02,SE,136,0.0,0.0,78,0.00,,,0.00,,2013-05-17 15:25:00,
2013-05-17 10:37:00,69.0,63.0,30.02,SSE,151,0.0,5.0,80,0.00,,,0.00,,2013-05-17 15:37:00,
2013-05-17 10:47:00,69.0,63.0,30.02,SSE,151,0.0,5.0,80,0.00,,,0.00,,2013-05-17 15:47:00,
2013-05-17 10:57:00,69.0,63.0,30.02,SSE,157,0.0,0.0,80,0.00,,,0.00,,2013-05-17 15:57:00,
2013-05-17 11:07:00,70.0,63.0,30.02,ESE,109,0.0,0.0,79,0.00,,,0.00,,2013-05-17 16:07:00,
2013-05-17 11:13:00,70.0,63.0,30.02,ESE,109,0.0,0.0,79,0.00,,,0.00,,2013-05-17 16:13:00,
2013-05-17 11:26:00,71.0,64.0,30.01,SSE,156,0.0,0.0,78,0.00,,,0.00,,2013-05-17 16:26:00,
2013-05-17 11:37:00,71.0,63.0,30.02,South,172,0.0,2.0,77,0.00,,,0.00,,2013-05-17 16:37:00,
2013-05-17 11:49:00,71.0,63.0,30.02,South,172,0.0,2.0,77,0.00,,,0.00,,2013-05-17 16:49:00,
2013-05-17 11:56:00,71.0,64.0,30.02,South,188,1.0,9.0,78,0.00,,,0.00,,2013-05-17 16:56:00,
2013-05-17 12:08:00,71.0,64.0,30.02,SSE,161,0.0,2.0,79,0.00,,,0.00,,2013-05-17 17:08:00,
2013-05-17 12:18:00,71.0,64.0,30.02,SSE,161,0.0,2.0,79,0.00,,,0.00,,2013-05-17 17:18:00,
2013-05-17 12:30:00,71.0,64.0,30.02,SSE,155,1.0,8.0,79,0.00,,,0.00,,2013-05-17 17:30:00,
2013-05-17 12:40:00,71.0,-99.9,30.02,South,176,3.0,8.0,77,0.00,,,0.00,,2013-05-17 17:40:00,
2013-05-17 12:49:00,71.0,63.0,30.02,South,176,3.0,8.0,77,0.00,,,0.00,,2013-05-17 17:49:00,
2013-05-17 13:00:00,71.0,64.0,30.01,SSE,148,0.0,10.0,78,0.00,,,0.00,,2013-05-17 18:00:00,
2013-05-17 13:09:00,70.0,63.0,30.01,SSE,167,1.0,10.0,79,0.00,,,0.00,,2013-05-17 18:09:00,
2013-05-17 13:20:00,70.0,63.0,30.01,SSE,167,1.0,10.0,79,0.00,,,0.00,,2013-05-17 18:20:00,
2013-05-17 13:30:00,71.0,65.0,30.01,SSE,163,0.0,8.0,80,0.00,,,0.00,,2013-05-17 18:30:00,
2013-05-17 13:40:00,71.0,-99.9,30.01,SSE,166,0.0,11.0,80,0.00,,,0.00,,2013-05-17 18:40:00,
2013-05-17 13:50:00,-999.0,-99.9,30.01,SSE,166,0.0,11.0,80,0.00,,,0.00,,2013-05-17 18:50:00,
2013-05-17 14:00:00,71.0,65.0,30.01,SE,144,0.0,0.0,80,0.00,,,0.00,,2013-05-17 19:00:00,
2013-05-17 14:10:00,71.0,64.0,30.00,ESE,109,0.0,0.0,78,0.00,,,0.00,,2013-05-17 19:10:00,
2013-05-17 14:20:00,71.0,64.0,30.00,ESE,109,0.0,0.0,78,0.00,,,0.00,,2013-05-17 19:20:00,
2013-05-17 14:30:00,71.0,64.0,30.00,South,171,1.0,11.0,78,0.00,,,0.00,,2013-05-17 19:30:00,
2013-05-17 14:40:00,72.0,65.0,30.00,SE,145,1.0,9.0,78,0.00,,,0.00,,2013-05-17 19:40:00,
2013-05-17 14:50:00,72.0,65.0,30.00,SE,145,1.0,9.0,78,0.00,,,0.00,,2013-05-17 19:50:00,
2013-05-17 15:01:00,-999.0,-99.9,29.99,SE,143,1.0,7.0,78,0.00,,,0.00,,2013-05-17 20:01:00,
2013-05-17 15:09:00,72.0,64.0,30.00,ESE,110,0.0,0.0,76,0.00,,,0.00,,2013-05-17 20:09:00,
2013-05-17 15:20:00,72.0,64.0,30.00,ESE,110,0.0,0.0,76,0.00,,,0.00,,2013-05-17 20:20:00,
2013-05-17 15:30:00,72.0,64.0,29.99,ENE,71,0.0,0.0,76,0.00,,,0.00,,2013-05-17 20:30:00,
2013-05-17 15:40:00,71.0,64.0,29.98,SSE,162,0.0,0.0,78,0.00,,,0.00,,2013-05-17 20:40:00,
2013-05-17 15:50:00,71.0,64.0,29.98,SSE,162,0.0,0.0,78,0.00,,,0.00,,2013-05-17 20:50:00,
2013-05-17 15:58:00,72.0,64.0,29.98,SSE,148,1.0,6.0,77,0.00,,,0.00,,2013-05-17 20:58:00,
2013-05-17 16:07:00,71.0,64.0,29.98,SE,142,0.0,0.0,78,0.00,,,0.00,,2013-05-17 21:07:00,
2013-05-17 16:17:00,71.0,64.0,29.98,SE,142,0.0,0.0,78,0.00,,,0.00,,2013-05-17 21:17:00,
2013-05-17 16:26:00,70.0,64.0,29.98,ESE,115,0.0,0.0,81,0.00,,,0.00,,2013-05-17 21:26:00,
2013-05-17 16:39:00,70.0,64.0,29.98,SSE,155,0.0,0.0,80,0.00,,,0.00,,2013-05-17 21:39:00,
2013-05-17 16:49:00,70.0,64.0,29.98,SSE,155,0.0,0.0,80,0.00,,,0.00,,2013-05-17 21:49:00,
2013-05-17 16:58:00,71.0,64.0,29.98,SE,133,0.0,0.0,78,0.00,,,0.00,,2013-05-17 21:58:00,
2013-05-17 17:07:00,71.0,63.0,29.97,South,182,0.0,1.0,77,0.00,,,0.00,,2013-05-17 22:07:00,
2013-05-17 17:17:00,71.0,63.0,29.97,South,182,0.0,1.0,77,0.00,,,0.00,,2013-05-17 22:17:00,
2013-05-17 17:28:00,72.0,63.0,29.97,South,169,0.0,7.0,73,0.00,,,0.00,,2013-05-17 22:28:00,
2013-05-17 17:38:00,72.0,62.0,29.96,South,188,0.0,0.0,72,0.00,,,0.00,,2013-05-17 22:38:00,
2013-05-17 17:47:00,72.0,62.0,29.96,South,188,0.0,0.0,72,0.00,,,0.00,,2013-05-17 22:47:00,
2013-05-17 17:55:00,72.0,61.0,29.97,South,179,0.0,8.0,69,0.00,,,0.00,,2013-05-17 22:55:00,
2013-05-17 18:04:00,73.0,62.0,29.97,SSE,155,0.0,4.0,69,0.00,,,0.00,,2013-05-17 23:04:00,
2013-05-17 18:13:00,73.0,62.0,29.97,SSE,155,0.0,4.0,69,0.00,,,0.00,,2013-05-17 23:13:00,
2013-05-17 18:23:00,73.0,62.0,29.97,SSE,165,1.0,10.0,68,0.00,,,0.00,,2013-05-17 23:23:00,
2013-05-17 18:37:00,72.0,62.0,29.97,South,177,0.0,0.0,71,0.00,,,0.00,,2013-05-17 23:37:00,
2013-05-17 18:47:00,72.0,62.0,29.97,South,177,0.0,0.0,71,0.00,,,0.00,,2013-05-17 23:47:00,
2013-05-17 18:54:00,73.0,62.0,29.97,SE,144,0.0,3.0,69,0.00,,,0.00,,2013-05-17 23:54:00,
2013-05-17 19:02:00,72.0,62.0,29.97,SE,146,0.0,0.0,72,0.00,,,0.00,,2013-05-18 00:02:00,
2013-05-17 19:14:00,72.0,62.0,29.97,SE,146,0.0,0.0,72,0.00,,,0.00,,2013-05-18 00:14:00,
2013-05-17 19:22:00,71.0,62.0,29.97,SSE,157,0.0,0.0,73,0.00,,,0.00,,2013-05-18 00:22:00,
2013-05-17 19:33:00,71.0,63.0,29.97,SSE,153,0.0,0.0,75,0.00,,,0.00,,2013-05-18 00:33:00,
2013-05-17 19:44:00,71.0,63.0,29.97,SSE,153,0.0,0.0,75,0.00,,,0.00,,2013-05-18 00:44:00,
2013-05-17 19:54:00,70.0,62.0,29.98,SSE,149,0.0,0.0,77,0.00,,,0.00,,2013-05-18 00:54:00,
2013-05-17 20:02:00,70.0,63.0,29.98,SE,128,0.0,0.0,78,0.00,,,0.00,,2013-05-18 01:02:00,
2013-05-17 20:13:00,70.0,63.0,29.98,SE,128,0.0,0.0,78,0.00,,,0.00,,2013-05-18 01:13:00,
2013-05-17 20:24:00,70.0,63.0,29.98,SE,128,0.0,0.0,78,0.00,,,0.00,,2013-05-18 01:24:00,
2013-05-17 20:32:00,69.0,62.0,29.98,SE,142,0.0,0.0,79,0.00,,,0.00,,2013-05-18 01:32:00,
2013-05-17 20:42:00,69.0,62.0,29.98,SE,142,0.0,0.0,79,0.00,,,0.00,,2013-05-18 01:42:00,
2013-05-17 20:52:00,69.0,63.0,29.99,SSE,167,0.0,0.0,80,0.00,,,0.00,,2013-05-18 01:52:00,
2013-05-17 21:02:00,69.0,63.0,29.99,ESE,110,0.0,0.0,81,0.00,,,0.00,,2013-05-18 02:02:00,
2013-05-17 21:12:00,69.0,63.0,29.99,ESE,110,0.0,0.0,81,0.00,,,0.00,,2013-05-18 02:12:00,
2013-05-17 21:22:00,69.0,63.0,29.99,East,90,0.0,0.0,82,0.00,,,0.00,,2013-05-18 02:22:00,
2013-05-17 21:31:00,68.0,62.0,29.99,SE,137,0.0,0.0,82,0.00,,,0.00,,2013-05-18 02:31:00,
2013-05-17 21:42:00,68.0,62.0,29.99,SE,137,0.0,0.0,82,0.00,,,0.00,,2013-05-18 02:42:00,
2013-05-17 21:54:00,68.0,63.0,30.00,SE,137,0.0,0.0,84,0.00,,,0.00,,2013-05-18 02:54:00,
2013-05-17 22:02:00,68.0,63.0,30.01,ESE,107,0.0,0.0,84,0.00,,,0.00,,2013-05-18 03:02:00,
2013-05-17 22:12:00,68.0,63.0,30.01,ESE,107,0.0,0.0,84,0.00,,,0.00,,2013-05-18 03:12:00,
2013-05-17 22:22:00,68.0,63.0,30.01,East,96,0.0,0.0,85,0.00,,,0.00,,2013-05-18 03:22:00,
2013-05-17 22:32:00,67.0,62.0,30.01,SE,136,0.0,0.0,85,0.00,,,0.00,,2013-05-18 03:32:00,
2013-05-17 22:43:00,67.0,62.0,30.01,SE,136,0.0,0.0,85,0.00,,,0.00,,2013-05-18 03:43:00,
2013-05-17 22:53:00,67.0,63.0,30.01,SE,146,0.0,0.0,86,0.00,,,0.00,,2013-05-18 03:53:00,
2013-05-17 23:02:00,67.0,63.0,30.00,SE,128,0.0,0.0,86,0.00,,,0.00,,2013-05-18 04:02:00,
2013-05-17 23:12:00,67.0,63.0,30.00,SE,128,0.0,0.0,86,0.00,,,0.00,,2013-05-18 04:12:00,
2013-05-17 23:23:00,67.0,63.0,30.01,SSE,154,0.0,0.0,86,0.00,,,0.00,,2013-05-18 04:23:00,
2013-05-17 23:33:00,67.0,63.0,30.00,ESE,117,0.0,0.0,86,0.00,,,0.00,,2013-05-18 04:33:00,
2013-05-17 23:42:00,67.0,63.0,30.00,ESE,117,0.0,0.0,86,0.00,,,0.00,,2013-05-18 04:42:00,
2013-05-17 23:52:00,67.0,63.0,30.00,ESE,123,0.0,0.0,86,0.00,,,0.00,,2013-05-18 04:52:00,